Погода в Аниве

Россия / Сахалинская область     46°42′47″N   142°31′35″E
темп.,
°C
ветер,
м/с
пор.,
м/с
влажн.,
%
обл.,
%
осадки,
мм/ч
давл.,
гПа
погр.,
м
6 мая, чт
чт623:00+4юв61290100 1.3 1004485
02:00+5ю81793100 2.6 999851
05:00+6зюз11218120 3.0 998934
08:00+7юз917811 0.0 1002628
11:00+10юз9147459 0.0 1002780
14:00+11юз10166413 0.1 10021099
17:00+12зюз915623 0.1 10021070
20:00+9зюз715695 0.0 1003520
7 мая, пт
пт723:00+6юз468678 0.0 1005107
02:00+5юз329154 0.0 100529
05:00+5юз3493100 0.0 100678
08:00+7юз41088100 0.0 1007380
11:00+12юз58678 0.0 1005413
14:00+15юз915551 0.0 1005759
17:00+14юз714455 0.0 1004679
20:00+10ююз375915 0.0 1003148
8 мая, сб
сб823:00+4вюв228172 0.0 100425
02:00+5с2278100 0.0 100214
05:00+7ссв3368100 0.0 99926
08:00+8с0170100 0.0 99813
11:00+10з1262100 0.0 996298
14:00+8ююв2389100 1.3 99792
17:00+9ю348364 2.2 997418
20:00+8ююз349020 0.1 998133
9 мая, вс
вс923:00+5ю229741 0.1 100018
02:00+4вюв229749 0.0 100021
05:00+4вюв2399100 0.0 99975
08:00+6в2793100 0.0 998226
11:00+6вюв4584100 0.0 998228
14:00+6юв2386100 0.0 997199
17:00+4юв239680 0.2 997134
20:00+4юв3596100 0.0 998161
10 мая, пн
пн1023:00+4юв2397100 0.3 99899
02:00+4юв4898100 0.6 998239
05:00+3юв5998100 1.0 998276
08:00+4ююв4696100 0.2 999183
11:00+5ю459192 0.3 1000451
14:00+6ю5689100 0.4 1001487
17:00+6зсз1388100 0.7 1002296
20:00+6ссз3490100 0.6 1004178